Time,TemperatureF,DewpointF,PressureIn,WindDirection,WindDirectionDegrees,WindSpeedMPH,WindSpeedGustMPH,Humidity,HourlyPrecipIn,Conditions,Clouds,dailyrainin,SoftwareType,DateUTC
2013-07-03 00:01:00,62.3,51.0,30.12,East,85,0.0,5.0,66,0.00,,,0.00,WUHU216DAVISVP2,2013-07-03 07:01:00,
2013-07-03 00:06:00,62.2,50.7,30.12,WNW,285,1.0,7.0,66,0.00,,,0.00,WUHU216DAVISVP2,2013-07-03 07:06:00,
2013-07-03 00:11:00,62.1,50.8,30.12,ENE,74,2.0,7.0,66,0.00,,,0.00,WUHU216DAVISVP2,2013-07-03 07:11:00,
2013-07-03 00:16:00,62.0,50.7,30.12,ENE,63,1.0,7.0,66,0.00,,,0.00,WUHU216DAVISVP2,2013-07-03 07:16:00,
2013-07-03 00:21:00,61.9,50.6,30.12,ENE,58,1.0,7.0,66,0.00,,,0.00,WUHU216DAVISVP2,2013-07-03 07:21:00,
2013-07-03 00:26:00,61.8,50.3,30.12,ENE,63,1.0,7.0,66,0.00,,,0.00,WUHU216DAVISVP2,2013-07-03 07:26:00,
2013-07-03 00:31:00,61.8,50.5,30.12,ENE,69,2.0,7.0,66,0.00,,,0.00,WUHU216DAVISVP2,2013-07-03 07:31:00,
2013-07-03 00:36:00,61.6,50.3,30.12,NE,56,3.0,4.0,66,0.00,,,0.00,WUHU216DAVISVP2,2013-07-03 07:36:00,
2013-07-03 00:38:00,61.5,50.2,30.13,NNE,27,3.0,4.0,66,0.00,,,0.00,WUHU216DAVISVP2,2013-07-03 07:38:00,
2013-07-03 00:43:00,61.4,50.1,30.13,ESE,106,0.0,5.0,66,0.00,,,0.00,WUHU216DAVISVP2,2013-07-03 07:43:00,
2013-07-03 00:48:00,61.3,49.8,30.13,East,96,4.0,5.0,66,0.00,,,0.00,WUHU216DAVISVP2,2013-07-03 07:48:00,
2013-07-03 00:50:00,61.2,49.9,30.13,NNE,24,1.0,5.0,66,0.00,,,0.00,WUHU216DAVISVP2,2013-07-03 07:50:00,
2013-07-03 00:55:00,61.1,49.8,30.13,East,80,0.0,6.0,66,0.00,,,0.00,WUHU216DAVISVP2,2013-07-03 07:55:00,
2013-07-03 01:00:00,61.0,49.7,30.13,NNE,17,0.0,6.0,66,0.00,,,0.00,WUHU216DAVISVP2,2013-07-03 08:00:00,
2013-07-03 01:02:00,60.9,49.6,30.13,NNE,32,2.0,6.0,66,0.00,,,0.00,WUHU216DAVISVP2,2013-07-03 08:02:00,
2013-07-03 01:06:00,60.9,49.6,30.13,ENE,61,1.0,5.0,66,0.00,,,0.00,WUHU216DAVISVP2,2013-07-03 08:06:00,
2013-07-03 01:09:00,60.8,49.5,30.13,NNE,20,0.0,5.0,66,0.00,,,0.00,WUHU216DAVISVP2,2013-07-03 08:09:00,
2013-07-03 01:14:00,60.8,49.9,30.13,NE,41,0.0,5.0,67,0.00,,,0.00,WUHU216DAVISVP2,2013-07-03 08:14:00,
2013-07-03 01:18:00,60.7,49.8,30.13,East,84,0.0,5.0,67,0.00,,,0.00,WUHU216DAVISVP2,2013-07-03 08:18:00,
2013-07-03 01:23:00,60.6,49.7,30.14,NE,55,0.0,5.0,67,0.00,,,0.00,WUHU216DAVISVP2,2013-07-03 08:23:00,
2013-07-03 01:28:00,60.5,49.9,30.14,NNE,33,0.0,4.0,68,0.00,,,0.00,WUHU216DAVISVP2,2013-07-03 08:28:00,
2013-07-03 01:34:00,60.4,49.1,30.14,NE,53,2.0,6.0,66,0.00,,,0.00,WUHU216DAVISVP2,2013-07-03 08:34:00,
2013-07-03 01:39:00,60.3,49.0,30.14,NW,316,0.0,6.0,66,0.00,,,0.00,WUHU216DAVISVP2,2013-07-03 08:39:00,
2013-07-03 01:44:00,60.3,49.0,30.14,NE,55,0.0,6.0,66,0.00,,,0.00,WUHU216DAVISVP2,2013-07-03 08:44:00,
2013-07-03 01:45:00,60.3,49.0,30.14,NE,55,0.0,6.0,66,0.00,,,0.00,WUHU216DAVISVP2,2013-07-03 08:45:00,
2013-07-03 01:50:00,60.1,48.4,30.14,NE,53,0.0,6.0,65,0.00,,,0.00,WUHU216DAVISVP2,2013-07-03 08:50:00,
2013-07-03 01:54:00,60.1,48.0,30.14,NNE,18,0.0,5.0,64,0.00,,,0.00,WUHU216DAVISVP2,2013-07-03 08:54:00,
2013-07-03 01:55:00,60.1,48.0,30.14,NNE,16,0.0,5.0,64,0.00,,,0.00,WUHU216DAVISVP2,2013-07-03 08:55:00,
2013-07-03 02:00:00,60.1,48.0,30.14,ENE,76,0.0,5.0,64,0.00,,,0.00,WUHU216DAVISVP2,2013-07-03 09:00:00,
2013-07-03 02:05:00,60.3,48.2,30.14,East,82,2.0,5.0,64,0.00,,,0.00,WUHU216DAVISVP2,2013-07-03 09:05:00,
2013-07-03 02:10:00,60.3,47.8,30.14,North,357,0.0,4.0,63,0.00,,,0.00,WUHU216DAVISVP2,2013-07-03 09:10:00,
2013-07-03 02:15:00,60.5,47.4,30.14,NNE,16,3.0,7.0,62,0.00,,,0.00,WUHU216DAVISVP2,2013-07-03 09:15:00,
2013-07-03 02:21:00,60.6,47.5,30.14,NE,39,2.0,7.0,62,0.00,,,0.00,WUHU216DAVISVP2,2013-07-03 09:21:00,
2013-07-03 02:26:00,60.6,47.5,30.14,WNW,291,0.0,6.0,62,0.00,,,0.00,WUHU216DAVISVP2,2013-07-03 09:26:00,
2013-07-03 02:31:00,60.5,47.6,30.14,NNW,343,1.0,6.0,62,0.00,,,0.00,WUHU216DAVISVP2,2013-07-03 09:31:00,
2013-07-03 02:36:00,60.5,47.6,30.14,ENE,72,2.0,6.0,62,0.00,,,0.00,WUHU216DAVISVP2,2013-07-03 09:36:00,
2013-07-03 02:41:00,60.4,47.5,30.14,NNE,23,0.0,5.0,62,0.00,,,0.00,WUHU216DAVISVP2,2013-07-03 09:41:00,
2013-07-03 02:46:00,60.3,47.8,30.15,NNE,30,0.0,5.0,63,0.00,,,0.00,WUHU216DAVISVP2,2013-07-03 09:46:00,
2013-07-03 02:49:00,60.3,47.4,30.15,ENE,60,0.0,4.0,62,0.00,,,0.00,WUHU216DAVISVP2,2013-07-03 09:49:00,
2013-07-03 02:50:00,60.3,47.4,30.15,NNW,340,1.0,4.0,62,0.00,,,0.00,WUHU216DAVISVP2,2013-07-03 09:50:00,
2013-07-03 02:55:00,60.3,47.4,30.15,NE,34,0.0,4.0,62,0.00,,,0.00,WUHU216DAVISVP2,2013-07-03 09:55:00,
2013-07-03 03:01:00,60.3,47.4,30.15,North,351,2.0,4.0,62,0.00,,,0.00,WUHU216DAVISVP2,2013-07-03 10:01:00,
2013-07-03 03:04:00,60.2,47.3,30.15,North,358,0.0,5.0,62,0.00,,,0.00,WUHU216DAVISVP2,2013-07-03 10:04:00,
2013-07-03 03:05:00,60.1,47.6,30.15,NNW,327,1.0,5.0,63,0.00,,,0.00,WUHU216DAVISVP2,2013-07-03 10:05:00,
2013-07-03 03:10:00,60.1,47.6,30.15,North,359,4.0,5.0,63,0.00,,,0.00,WUHU216DAVISVP2,2013-07-03 10:10:00,
2013-07-03 03:15:00,60.1,47.6,30.15,NW,307,0.0,5.0,63,0.00,,,0.00,WUHU216DAVISVP2,2013-07-03 10:15:00,
2013-07-03 03:21:00,60.0,47.1,30.15,NNE,15,2.0,5.0,62,0.00,,,0.00,WUHU216DAVISVP2,2013-07-03 10:21:00,
2013-07-03 03:26:00,59.9,47.4,30.15,NNW,341,1.0,5.0,63,0.00,,,0.00,WUHU216DAVISVP2,2013-07-03 10:26:00,
2013-07-03 03:31:00,59.9,47.0,30.15,East,82,0.0,5.0,62,0.00,,,0.00,WUHU216DAVISVP2,2013-07-03 10:31:00,
2013-07-03 03:32:00,59.9,47.0,30.15,NNW,335,0.0,5.0,62,0.00,,,0.00,WUHU216DAVISVP2,2013-07-03 10:32:00,
2013-07-03 03:37:00,60.0,47.1,30.15,NNE,24,2.0,5.0,62,0.00,,,0.00,WUHU216DAVISVP2,2013-07-03 10:37:00,
2013-07-03 03:42:00,60.0,47.1,30.15,NNE,20,0.0,5.0,62,0.00,,,0.00,WUHU216DAVISVP2,2013-07-03 10:42:00,
2013-07-03 03:47:00,60.0,47.1,30.15,North,355,0.0,5.0,62,0.00,,,0.00,WUHU216DAVISVP2,2013-07-03 10:47:00,
2013-07-03 03:49:00,60.0,47.1,30.15,North,358,0.0,5.0,62,0.00,,,0.00,WUHU216DAVISVP2,2013-07-03 10:49:00,
2013-07-03 03:55:00,60.1,47.0,30.16,North,1,0.0,5.0,62,0.00,,,0.00,WUHU216DAVISVP2,2013-07-03 10:55:00,
2013-07-03 03:57:00,60.1,47.2,30.16,North,1,0.0,3.0,62,0.00,,,0.00,WUHU216DAVISVP2,2013-07-03 10:57:00,
2013-07-03 04:02:00,60.1,47.2,30.16,North,350,0.0,2.0,62,0.00,,,0.00,WUHU216DAVISVP2,2013-07-03 11:02:00,
2013-07-03 04:07:00,60.2,46.8,30.16,NNW,346,0.0,2.0,61,0.00,,,0.00,WUHU216DAVISVP2,2013-07-03 11:07:00,
2013-07-03 04:08:00,60.1,46.7,30.16,NNE,12,0.0,2.0,61,0.00,,,0.00,WUHU216DAVISVP2,2013-07-03 11:08:00,
2013-07-03 04:09:00,60.1,46.7,30.16,WNW,293,0.0,2.0,61,0.00,,,0.00,WUHU216DAVISVP2,2013-07-03 11:09:00,
2013-07-03 04:14:00,60.2,46.8,30.16,North,5,0.0,2.0,61,0.00,,,0.00,WUHU216DAVISVP2,2013-07-03 11:14:00,
2013-07-03 04:19:00,60.2,47.3,30.16,East,86,1.0,3.0,62,0.00,,,0.00,WUHU216DAVISVP2,2013-07-03 11:19:00,
2013-07-03 04:23:00,60.1,47.6,30.16,East,101,1.0,3.0,63,0.00,,,0.00,WUHU216DAVISVP2,2013-07-03 11:23:00,
2013-07-03 04:25:00,60.0,47.4,30.16,NNE,27,0.0,3.0,63,0.00,,,0.00,WUHU216DAVISVP2,2013-07-03 11:25:00,
2013-07-03 04:30:00,59.8,47.3,30.16,East,84,0.0,5.0,63,0.00,,,0.00,WUHU216DAVISVP2,2013-07-03 11:30:00,
2013-07-03 04:35:00,59.6,47.6,30.16,NNW,342,1.0,5.0,64,0.00,,,0.00,WUHU216DAVISVP2,2013-07-03 11:35:00,
2013-07-03 04:40:00,59.5,47.3,30.16,ENE,75,0.0,5.0,64,0.00,,,0.00,WUHU216DAVISVP2,2013-07-03 11:40:00,
2013-07-03 04:45:00,59.4,47.8,30.16,ENE,74,0.0,5.0,65,0.00,,,0.00,WUHU216DAVISVP2,2013-07-03 11:45:00,
2013-07-03 04:50:00,59.3,47.7,30.16,NE,39,2.0,4.0,65,0.00,,,0.00,WUHU216DAVISVP2,2013-07-03 11:50:00,
2013-07-03 04:55:00,59.2,48.0,30.16,NNE,32,0.0,4.0,66,0.00,,,0.00,WUHU216DAVISVP2,2013-07-03 11:55:00,
2013-07-03 04:59:00,59.1,48.3,30.17,East,96,0.0,4.0,67,0.00,,,0.00,WUHU216DAVISVP2,2013-07-03 11:59:00,
2013-07-03 05:02:00,59.0,48.2,30.16,East,86,0.0,4.0,67,0.00,,,0.00,WUHU216DAVISVP2,2013-07-03 12:02:00,
2013-07-03 05:07:00,58.9,48.5,30.16,NNE,27,0.0,4.0,68,0.00,,,0.00,WUHU216DAVISVP2,2013-07-03 12:07:00,
2013-07-03 05:12:00,58.9,48.4,30.17,North,357,2.0,4.0,68,0.00,,,0.00,WUHU216DAVISVP2,2013-07-03 12:12:00,
2013-07-03 05:16:00,58.8,48.4,30.17,NE,55,0.0,4.0,68,0.00,,,0.00,WUHU216DAVISVP2,2013-07-03 12:16:00,
2013-07-03 05:20:00,58.8,48.3,30.17,East,81,0.0,3.0,68,0.00,,,0.00,WUHU216DAVISVP2,2013-07-03 12:20:00,
2013-07-03 05:25:00,58.8,48.8,30.17,NNW,346,0.0,3.0,69,0.00,,,0.00,WUHU216DAVISVP2,2013-07-03 12:25:00,
2013-07-03 05:30:00,58.8,48.6,30.17,NE,56,0.0,2.0,69,0.00,,,0.00,WUHU216DAVISVP2,2013-07-03 12:30:00,
2013-07-03 05:35:00,58.9,48.9,30.17,ENE,75,0.0,2.0,69,0.00,,,0.00,WUHU216DAVISVP2,2013-07-03 12:35:00,
2013-07-03 05:40:00,58.8,48.8,30.18,ESE,110,0.0,2.0,69,0.00,,,0.00,WUHU216DAVISVP2,2013-07-03 12:40:00,
2013-07-03 05:45:00,58.7,48.7,30.18,East,100,1.0,2.0,69,0.00,,,0.00,WUHU216DAVISVP2,2013-07-03 12:45:00,
2013-07-03 05:46:00,58.7,48.7,30.18,East,100,0.0,2.0,69,0.00,,,0.00,WUHU216DAVISVP2,2013-07-03 12:46:00,
2013-07-03 05:51:00,58.8,49.2,30.18,ESE,103,0.0,2.0,70,0.00,,,0.00,WUHU216DAVISVP2,2013-07-03 12:51:00,
2013-07-03 05:56:00,58.8,48.8,30.18,ENE,69,1.0,4.0,69,0.00,,,0.00,WUHU216DAVISVP2,2013-07-03 12:56:00,
2013-07-03 06:01:00,58.8,49.2,30.18,East,98,0.0,4.0,70,0.00,,,0.00,WUHU216DAVISVP2,2013-07-03 13:01:00,
2013-07-03 06:07:00,58.9,49.3,30.18,ENE,72,0.0,4.0,70,0.00,,,0.00,WUHU216DAVISVP2,2013-07-03 13:07:00,
2013-07-03 06:12:00,58.9,49.3,30.18,NNE,20,2.0,4.0,70,0.00,,,0.00,WUHU216DAVISVP2,2013-07-03 13:12:00,
2013-07-03 06:17:00,58.8,48.8,30.18,North,4,0.0,3.0,69,0.00,,,0.00,WUHU216DAVISVP2,2013-07-03 13:17:00,
2013-07-03 06:22:00,58.8,49.0,30.18,NNE,13,0.0,3.0,70,0.00,,,0.00,WUHU216DAVISVP2,2013-07-03 13:22:00,
2013-07-03 06:25:00,59.0,49.4,30.18,North,355,0.0,3.0,70,0.00,,,0.00,WUHU216DAVISVP2,2013-07-03 13:25:00,
2013-07-03 06:30:00,59.0,49.2,30.18,ENE,72,0.0,3.0,70,0.00,,,0.00,WUHU216DAVISVP2,2013-07-03 13:30:00,
2013-07-03 06:35:00,59.1,49.5,30.18,ENE,72,0.0,4.0,70,0.00,,,0.00,WUHU216DAVISVP2,2013-07-03 13:35:00,
2013-07-03 06:37:00,59.1,49.5,30.18,ESE,103,0.0,4.0,70,0.00,,,0.00,WUHU216DAVISVP2,2013-07-03 13:37:00,
2013-07-03 06:42:00,59.0,49.4,30.18,East,84,2.0,3.0,70,0.00,,,0.00,WUHU216DAVISVP2,2013-07-03 13:42:00,
2013-07-03 06:47:00,59.0,49.4,30.18,NE,56,1.0,4.0,70,0.00,,,0.00,WUHU216DAVISVP2,2013-07-03 13:47:00,
2013-07-03 06:52:00,59.0,49.2,30.18,NNW,340,0.0,4.0,70,0.00,,,0.00,WUHU216DAVISVP2,2013-07-03 13:52:00,
2013-07-03 06:58:00,59.2,49.6,30.18,ESE,107,0.0,4.0,70,0.00,,,0.00,WUHU216DAVISVP2,2013-07-03 13:58:00,
2013-07-03 07:03:00,59.2,49.6,30.18,NE,46,0.0,3.0,70,0.00,,,0.00,WUHU216DAVISVP2,2013-07-03 14:03:00,
2013-07-03 07:06:00,59.1,49.5,30.18,North,355,0.0,3.0,70,0.00,,,0.00,WUHU216DAVISVP2,2013-07-03 14:06:00,
2013-07-03 07:09:00,59.2,49.6,30.18,SE,139,0.0,3.0,70,0.00,,,0.00,WUHU216DAVISVP2,2013-07-03 14:09:00,
2013-07-03 07:14:00,59.2,49.6,30.18,ENE,73,0.0,3.0,70,0.00,,,0.00,WUHU216DAVISVP2,2013-07-03 14:14:00,
2013-07-03 07:17:00,59.2,49.9,30.18,NNE,20,0.0,3.0,71,0.00,,,0.00,WUHU216DAVISVP2,2013-07-03 14:17:00,
2013-07-03 07:22:00,59.5,50.2,30.18,ENE,61,0.0,3.0,71,0.00,,,0.00,WUHU216DAVISVP2,2013-07-03 14:22:00,
2013-07-03 07:27:00,59.3,49.6,30.18,ENE,74,1.0,3.0,70,0.00,,,0.00,WUHU216DAVISVP2,2013-07-03 14:27:00,
2013-07-03 07:30:00,59.3,49.6,30.18,NE,49,2.0,3.0,70,0.00,,,0.00,WUHU216DAVISVP2,2013-07-03 14:30:00,
2013-07-03 07:35:00,59.2,49.9,30.18,ENE,77,1.0,3.0,71,0.00,,,0.00,WUHU216DAVISVP2,2013-07-03 14:35:00,
2013-07-03 07:38:00,59.5,50.1,30.18,NE,43,0.0,3.0,71,0.00,,,0.00,WUHU216DAVISVP2,2013-07-03 14:38:00,
2013-07-03 07:42:00,59.8,50.1,30.18,ENE,64,0.0,3.0,70,0.00,,,0.00,WUHU216DAVISVP2,2013-07-03 14:42:00,
2013-07-03 07:47:00,60.3,50.2,30.18,ENE,70,1.0,3.0,69,0.00,,,0.00,WUHU216DAVISVP2,2013-07-03 14:47:00,
2013-07-03 07:52:00,61.3,51.0,30.18,SE,127,1.0,3.0,69,0.00,,,0.00,WUHU216DAVISVP2,2013-07-03 14:52:00,
2013-07-03 07:57:00,62.2,51.3,30.19,East,94,2.0,3.0,67,0.00,,,0.00,WUHU216DAVISVP2,2013-07-03 14:57:00,
2013-07-03 07:58:00,62.4,51.0,30.18,ENE,57,0.0,3.0,66,0.00,,,0.00,WUHU216DAVISVP2,2013-07-03 14:58:00,
2013-07-03 08:03:00,63.0,51.0,30.18,NE,48,0.0,4.0,65,0.00,,,0.00,WUHU216DAVISVP2,2013-07-03 15:03:00,
2013-07-03 08:08:00,62.8,50.6,30.19,ENE,74,2.0,4.0,64,0.00,,,0.00,WUHU216DAVISVP2,2013-07-03 15:08:00,
2013-07-03 08:13:00,62.8,51.0,30.19,East,96,1.0,4.0,65,0.00,,,0.00,WUHU216DAVISVP2,2013-07-03 15:13:00,
2013-07-03 08:15:00,62.8,51.4,30.18,North,356,2.0,4.0,66,0.00,,,0.00,WUHU216DAVISVP2,2013-07-03 15:15:00,
2013-07-03 08:20:00,64.1,51.4,30.19,ESE,104,0.0,3.0,63,0.00,,,0.00,WUHU216DAVISVP2,2013-07-03 15:20:00,
2013-07-03 08:25:00,64.5,50.9,30.18,NNE,12,0.0,4.0,61,0.00,,,0.00,WUHU216DAVISVP2,2013-07-03 15:25:00,
2013-07-03 08:28:00,64.8,51.6,30.18,NNE,15,0.0,4.0,62,0.00,,,0.00,WUHU216DAVISVP2,2013-07-03 15:28:00,
2013-07-03 08:33:00,65.1,51.5,30.18,SE,127,1.0,4.0,61,0.00,,,0.00,WUHU216DAVISVP2,2013-07-03 15:33:00,
2013-07-03 08:38:00,65.6,51.9,30.18,North,350,1.0,3.0,61,0.00,,,0.00,WUHU216DAVISVP2,2013-07-03 15:38:00,
2013-07-03 08:40:00,65.8,51.5,30.18,North,10,0.0,3.0,60,0.00,,,0.00,WUHU216DAVISVP2,2013-07-03 15:40:00,
2013-07-03 08:45:00,66.4,52.7,30.19,NNE,23,0.0,3.0,61,0.00,,,0.00,WUHU216DAVISVP2,2013-07-03 15:45:00,
2013-07-03 08:50:00,67.7,52.5,30.18,NNE,13,0.0,3.0,58,0.00,,,0.00,WUHU216DAVISVP2,2013-07-03 15:50:00,
2013-07-03 08:52:00,68.0,53.3,30.18,NE,51,0.0,3.0,59,0.00,,,0.00,WUHU216DAVISVP2,2013-07-03 15:52:00,
2013-07-03 08:57:00,67.5,51.9,30.19,NNW,339,0.0,3.0,57,0.00,,,0.00,WUHU216DAVISVP2,2013-07-03 15:57:00,
2013-07-03 09:02:00,67.6,52.9,30.19,SW,219,0.0,3.0,59,0.00,,,0.00,WUHU216DAVISVP2,2013-07-03 16:02:00,
2013-07-03 09:07:00,68.4,52.7,30.18,NE,34,2.0,3.0,57,0.00,,,0.00,WUHU216DAVISVP2,2013-07-03 16:07:00,
2013-07-03 09:13:00,68.2,52.5,30.18,NNW,348,0.0,3.0,57,0.00,,,0.00,WUHU216DAVISVP2,2013-07-03 16:13:00,
2013-07-03 09:17:00,68.1,52.9,30.18,NE,35,1.0,3.0,58,0.00,,,0.00,WUHU216DAVISVP2,2013-07-03 16:17:00,
2013-07-03 09:23:00,68.7,52.8,30.18,NE,46,0.0,3.0,57,0.00,,,0.00,WUHU216DAVISVP2,2013-07-03 16:23:00,
2013-07-03 09:28:00,68.9,53.2,30.18,North,359,3.0,4.0,57,0.00,,,0.00,WUHU216DAVISVP2,2013-07-03 16:28:00,
2013-07-03 09:33:00,68.5,52.8,30.18,North,10,2.0,4.0,57,0.00,,,0.00,WUHU216DAVISVP2,2013-07-03 16:33:00,
2013-07-03 09:38:00,68.6,52.9,30.18,ENE,71,0.0,4.0,57,0.00,,,0.00,WUHU216DAVISVP2,2013-07-03 16:38:00,
2013-07-03 09:43:00,69.2,53.5,30.18,WNW,284,0.0,4.0,57,0.00,,,0.00,WUHU216DAVISVP2,2013-07-03 16:43:00,
2013-07-03 09:49:00,70.0,53.7,30.18,SSW,200,0.0,3.0,56,0.00,,,0.00,WUHU216DAVISVP2,2013-07-03 16:49:00,
2013-07-03 09:54:00,70.7,53.2,30.18,SW,226,0.0,3.0,54,0.00,,,0.00,WUHU216DAVISVP2,2013-07-03 16:54:00,
2013-07-03 09:59:00,71.2,53.3,30.18,SE,141,0.0,2.0,53,0.00,,,0.00,WUHU216DAVISVP2,2013-07-03 16:59:00,
2013-07-03 10:04:00,70.0,53.2,30.18,West,262,0.0,5.0,55,0.00,,,0.00,WUHU216DAVISVP2,2013-07-03 17:04:00,
2013-07-03 10:09:00,70.8,53.5,30.18,SW,235,0.0,5.0,54,0.00,,,0.00,WUHU216DAVISVP2,2013-07-03 17:09:00,
2013-07-03 10:14:00,70.4,53.6,30.18,SSW,207,0.0,5.0,55,0.00,,,0.00,WUHU216DAVISVP2,2013-07-03 17:14:00,
2013-07-03 10:19:00,71.2,53.8,30.18,SW,229,0.0,3.0,54,0.00,,,0.00,WUHU216DAVISVP2,2013-07-03 17:19:00,
2013-07-03 10:24:00,71.5,54.1,30.18,SW,236,0.0,3.0,54,0.00,,,0.00,WUHU216DAVISVP2,2013-07-03 17:24:00,
2013-07-03 10:29:00,71.8,54.4,30.18,SW,235,0.0,3.0,54,0.00,,,0.00,WUHU216DAVISVP2,2013-07-03 17:29:00,
2013-07-03 10:34:00,72.1,54.1,30.18,SW,219,0.0,2.0,53,0.00,,,0.00,WUHU216DAVISVP2,2013-07-03 17:34:00,
2013-07-03 10:40:00,72.4,53.8,30.18,SW,221,0.0,2.0,52,0.00,,,0.00,WUHU216DAVISVP2,2013-07-03 17:40:00,
2013-07-03 10:45:00,72.5,53.9,30.18,SW,228,0.0,2.0,52,0.00,,,0.00,WUHU216DAVISVP2,2013-07-03 17:45:00,
2013-07-03 10:50:00,72.4,53.3,30.18,North,349,1.0,2.0,51,0.00,,,0.00,WUHU216DAVISVP2,2013-07-03 17:50:00,
2013-07-03 10:55:00,72.1,53.6,30.17,East,101,0.0,2.0,52,0.00,,,0.00,WUHU216DAVISVP2,2013-07-03 17:55:00,
2013-07-03 11:00:00,72.4,53.9,30.18,ESE,117,0.0,2.0,52,0.00,,,0.00,WUHU216DAVISVP2,2013-07-03 18:00:00,
2013-07-03 11:06:00,72.9,53.8,30.17,WSW,237,1.0,2.0,51,0.00,,,0.00,WUHU216DAVISVP2,2013-07-03 18:06:00,
2013-07-03 11:11:00,73.2,54.1,30.17,NE,51,0.0,2.0,51,0.00,,,0.00,WUHU216DAVISVP2,2013-07-03 18:11:00,
2013-07-03 11:16:00,73.4,54.2,30.17,NE,44,0.0,2.0,51,0.00,,,0.00,WUHU216DAVISVP2,2013-07-03 18:16:00,
2013-07-03 11:21:00,72.8,53.7,30.17,NNE,27,1.0,3.0,51,0.00,,,0.00,WUHU216DAVISVP2,2013-07-03 18:21:00,
2013-07-03 11:26:00,72.6,54.1,30.17,NNE,15,1.0,3.0,52,0.00,,,0.00,WUHU216DAVISVP2,2013-07-03 18:26:00,
2013-07-03 11:31:00,72.8,53.1,30.17,NE,41,0.0,3.0,50,0.00,,,0.00,WUHU216DAVISVP2,2013-07-03 18:31:00,
2013-07-03 11:36:00,72.6,53.5,30.17,North,356,2.0,3.0,51,0.00,,,0.00,WUHU216DAVISVP2,2013-07-03 18:36:00,
2013-07-03 11:41:00,72.7,53.6,30.17,South,169,0.0,3.0,51,0.00,,,0.00,WUHU216DAVISVP2,2013-07-03 18:41:00,
2013-07-03 11:46:00,72.3,53.2,30.17,WNW,287,0.0,4.0,51,0.00,,,0.00,WUHU216DAVISVP2,2013-07-03 18:46:00,
2013-07-03 11:51:00,73.4,53.7,30.17,North,356,1.0,4.0,50,0.00,,,0.00,WUHU216DAVISVP2,2013-07-03 18:51:00,
2013-07-03 11:56:00,73.9,54.2,30.17,NW,315,1.0,4.0,50,0.00,,,0.00,WUHU216DAVISVP2,2013-07-03 18:56:00,
2013-07-03 12:01:00,74.1,53.8,30.17,WNW,295,0.0,4.0,49,0.00,,,0.00,WUHU216DAVISVP2,2013-07-03 19:01:00,
2013-07-03 12:06:00,74.0,54.2,30.17,NNE,12,1.0,4.0,50,0.00,,,0.00,WUHU216DAVISVP2,2013-07-03 19:06:00,
2013-07-03 12:11:00,74.1,53.8,30.17,NE,36,0.0,4.0,49,0.00,,,0.00,WUHU216DAVISVP2,2013-07-03 19:11:00,
2013-07-03 12:17:00,74.0,54.8,30.17,North,8,1.0,3.0,51,0.00,,,0.00,WUHU216DAVISVP2,2013-07-03 19:17:00,
2013-07-03 12:22:00,74.2,54.4,30.16,SW,226,0.0,3.0,50,0.00,,,0.00,WUHU216DAVISVP2,2013-07-03 19:22:00,
2013-07-03 12:28:00,74.6,54.2,30.17,NW,319,2.0,4.0,49,0.00,,,0.00,WUHU216DAVISVP2,2013-07-03 19:28:00,
2013-07-03 12:33:00,74.0,53.7,30.16,NNE,20,1.0,4.0,49,0.00,,,0.00,WUHU216DAVISVP2,2013-07-03 19:33:00,
2013-07-03 12:38:00,74.0,53.7,30.17,North,352,1.0,3.0,49,0.00,,,0.00,WUHU216DAVISVP2,2013-07-03 19:38:00,
2013-07-03 12:43:00,73.9,53.6,30.16,North,356,3.0,3.0,49,0.00,,,0.00,WUHU216DAVISVP2,2013-07-03 19:43:00,
2013-07-03 12:48:00,74.0,54.2,30.17,NE,56,1.0,3.0,50,0.00,,,0.00,WUHU216DAVISVP2,2013-07-03 19:48:00,
2013-07-03 12:53:00,74.2,54.4,30.17,East,92,2.0,7.0,50,0.00,,,0.00,WUHU216DAVISVP2,2013-07-03 19:53:00,
2013-07-03 12:58:00,74.2,53.9,30.17,NNW,347,2.0,7.0,49,0.00,,,0.00,WUHU216DAVISVP2,2013-07-03 19:58:00,
2013-07-03 13:03:00,73.9,54.2,30.17,WSW,239,1.0,6.0,50,0.00,,,0.00,WUHU216DAVISVP2,2013-07-03 20:03:00,
2013-07-03 13:09:00,74.8,54.4,30.17,NNE,33,1.0,6.0,49,0.00,,,0.00,WUHU216DAVISVP2,2013-07-03 20:09:00,
2013-07-03 13:14:00,74.9,51.5,30.16,NNE,30,1.0,5.0,44,0.00,,,0.00,WUHU216DAVISVP2,2013-07-03 20:14:00,
2013-07-03 13:19:00,74.6,51.2,30.16,NNE,15,2.0,4.0,44,0.00,,,0.00,WUHU216DAVISVP2,2013-07-03 20:19:00,
2013-07-03 13:24:00,75.1,51.0,30.16,ENE,75,0.0,4.0,43,0.00,,,0.00,WUHU216DAVISVP2,2013-07-03 20:24:00,
2013-07-03 13:29:00,75.0,49.6,30.16,NNE,15,1.0,4.0,41,0.00,,,0.00,WUHU216DAVISVP2,2013-07-03 20:29:00,
2013-07-03 13:34:00,75.3,50.6,30.16,NNE,25,2.0,4.0,42,0.00,,,0.00,WUHU216DAVISVP2,2013-07-03 20:34:00,
2013-07-03 13:39:00,75.1,49.0,30.16,NE,39,1.0,4.0,40,0.00,,,0.00,WUHU216DAVISVP2,2013-07-03 20:39:00,
2013-07-03 13:45:00,74.7,50.0,30.16,WNW,288,1.0,4.0,42,0.00,,,0.00,WUHU216DAVISVP2,2013-07-03 20:45:00,
2013-07-03 13:50:00,74.6,50.6,30.16,NE,41,0.0,6.0,43,0.00,,,0.00,WUHU216DAVISVP2,2013-07-03 20:50:00,
2013-07-03 13:55:00,75.1,49.1,30.16,SW,219,0.0,6.0,40,0.00,,,0.00,WUHU216DAVISVP2,2013-07-03 20:55:00,
2013-07-03 14:00:00,75.9,49.1,30.15,East,86,0.0,5.0,39,0.00,,,0.00,WUHU216DAVISVP2,2013-07-03 21:00:00,
2013-07-03 14:06:00,75.9,49.8,30.15,WNW,302,2.0,6.0,40,0.00,,,0.00,WUHU216DAVISVP2,2013-07-03 21:06:00,
2013-07-03 14:11:00,75.8,50.3,30.15,NNE,19,1.0,6.0,41,0.00,,,0.00,WUHU216DAVISVP2,2013-07-03 21:11:00,
2013-07-03 14:16:00,75.7,50.9,30.15,North,359,1.0,6.0,42,0.00,,,0.00,WUHU216DAVISVP2,2013-07-03 21:16:00,
2013-07-03 14:22:00,76.1,51.3,30.15,SW,218,2.0,6.0,42,0.00,,,0.00,WUHU216DAVISVP2,2013-07-03 21:22:00,
2013-07-03 14:27:00,75.8,51.0,30.14,NNW,338,0.0,8.0,42,0.00,,,0.00,WUHU216DAVISVP2,2013-07-03 21:27:00,
2013-07-03 14:32:00,75.5,51.4,30.15,NW,307,0.0,8.0,43,0.00,,,0.00,WUHU216DAVISVP2,2013-07-03 21:32:00,
2013-07-03 14:37:00,76.1,51.9,30.14,NNE,15,1.0,8.0,43,0.00,,,0.00,WUHU216DAVISVP2,2013-07-03 21:37:00,
2013-07-03 14:42:00,75.3,51.2,30.14,SW,228,0.0,8.0,43,0.00,,,0.00,WUHU216DAVISVP2,2013-07-03 21:42:00,
2013-07-03 14:47:00,74.7,51.3,30.14,NNE,30,1.0,7.0,44,0.00,,,0.00,WUHU216DAVISVP2,2013-07-03 21:47:00,
2013-07-03 14:53:00,74.4,52.3,30.14,NNW,348,2.0,7.0,46,0.00,,,0.00,WUHU216DAVISVP2,2013-07-03 21:53:00,
2013-07-03 14:58:00,74.3,53.4,30.14,NNE,26,2.0,7.0,48,0.00,,,0.00,WUHU216DAVISVP2,2013-07-03 21:58:00,
2013-07-03 15:03:00,73.9,53.0,30.14,North,8,2.0,6.0,48,0.00,,,0.00,WUHU216DAVISVP2,2013-07-03 22:03:00,
2013-07-03 15:08:00,73.6,53.9,30.14,NNE,27,1.0,10.0,50,0.00,,,0.00,WUHU216DAVISVP2,2013-07-03 22:08:00,
2013-07-03 15:13:00,73.7,52.8,30.13,NNW,328,3.0,10.0,48,0.00,,,0.00,WUHU216DAVISVP2,2013-07-03 22:13:00,
2013-07-03 15:19:00,74.0,53.7,30.13,NNE,25,6.0,9.0,49,0.00,,,0.00,WUHU216DAVISVP2,2013-07-03 22:19:00,
2013-07-03 15:24:00,74.2,53.2,30.13,NW,321,2.0,9.0,48,0.00,,,0.00,WUHU216DAVISVP2,2013-07-03 22:24:00,
2013-07-03 15:29:00,73.4,52.0,30.13,NNW,334,1.0,12.0,47,0.00,,,0.00,WUHU216DAVISVP2,2013-07-03 22:29:00,
2013-07-03 15:34:00,72.8,52.0,30.13,NNW,338,3.0,12.0,48,0.00,,,0.00,WUHU216DAVISVP2,2013-07-03 22:34:00,
2013-07-03 15:39:00,73.6,52.7,30.12,North,4,2.0,11.0,48,0.00,,,0.00,WUHU216DAVISVP2,2013-07-03 22:39:00,
2013-07-03 15:44:00,73.3,52.4,30.12,NW,316,2.0,11.0,48,0.00,,,0.00,WUHU216DAVISVP2,2013-07-03 22:44:00,
2013-07-03 15:49:00,73.2,51.8,30.13,NNE,13,1.0,10.0,47,0.00,,,0.00,WUHU216DAVISVP2,2013-07-03 22:49:00,
2013-07-03 15:54:00,72.9,51.5,30.12,NNW,328,4.0,10.0,47,0.00,,,0.00,WUHU216DAVISVP2,2013-07-03 22:54:00,
2013-07-03 15:59:00,72.9,52.7,30.12,ENE,57,1.0,10.0,49,0.00,,,0.00,WUHU216DAVISVP2,2013-07-03 22:59:00,
2013-07-03 16:04:00,74.2,52.1,30.12,NNW,335,2.0,10.0,46,0.00,,,0.00,WUHU216DAVISVP2,2013-07-03 23:04:00,
2013-07-03 16:09:00,74.3,50.9,30.11,NNW,335,6.0,10.0,44,0.00,,,0.00,WUHU216DAVISVP2,2013-07-03 23:09:00,
2013-07-03 16:14:00,74.5,52.4,30.11,NE,43,0.0,7.0,46,0.00,,,0.00,WUHU216DAVISVP2,2013-07-03 23:14:00,
2013-07-03 16:20:00,74.3,50.9,30.11,NNW,333,1.0,7.0,44,0.00,,,0.00,WUHU216DAVISVP2,2013-07-03 23:20:00,
2013-07-03 16:25:00,74.4,51.1,30.11,NNW,347,2.0,7.0,44,0.00,,,0.00,WUHU216DAVISVP2,2013-07-03 23:25:00,
2013-07-03 16:31:00,74.3,50.4,30.11,NNE,26,2.0,8.0,43,0.00,,,0.00,WUHU216DAVISVP2,2013-07-03 23:31:00,
2013-07-03 16:36:00,74.0,50.7,30.11,WNW,289,0.0,10.0,44,0.00,,,0.00,WUHU216DAVISVP2,2013-07-03 23:36:00,
2013-07-03 16:42:00,74.3,50.3,30.11,North,350,1.0,9.0,43,0.00,,,0.00,WUHU216DAVISVP2,2013-07-03 23:42:00,
2013-07-03 16:47:00,73.8,49.9,30.10,NNE,15,3.0,9.0,43,0.00,,,0.00,WUHU216DAVISVP2,2013-07-03 23:47:00,
2013-07-03 16:52:00,73.8,49.2,30.11,NE,45,0.0,7.0,42,0.00,,,0.00,WUHU216DAVISVP2,2013-07-03 23:52:00,
2013-07-03 16:57:00,74.1,49.5,30.10,West,260,1.0,10.0,42,0.00,,,0.00,WUHU216DAVISVP2,2013-07-03 23:57:00,
2013-07-03 17:02:00,73.5,48.9,30.10,NNE,30,2.0,11.0,42,0.00,,,0.00,WUHU216DAVISVP2,2013-07-04 00:02:00,
2013-07-03 17:07:00,73.1,49.9,30.10,NNE,13,1.0,11.0,44,0.00,,,0.00,WUHU216DAVISVP2,2013-07-04 00:07:00,
2013-07-03 17:12:00,72.6,48.8,30.10,NNW,338,3.0,10.0,43,0.00,,,0.00,WUHU216DAVISVP2,2013-07-04 00:12:00,
2013-07-03 17:18:00,72.6,46.8,30.10,NE,36,4.0,10.0,40,0.00,,,0.00,WUHU216DAVISVP2,2013-07-04 00:18:00,
2013-07-03 17:23:00,72.9,47.1,30.09,NNE,23,6.0,10.0,40,0.00,,,0.00,WUHU216DAVISVP2,2013-07-04 00:23:00,
2013-07-03 17:28:00,72.4,48.6,30.09,North,358,1.0,13.0,43,0.00,,,0.00,WUHU216DAVISVP2,2013-07-04 00:28:00,
2013-07-03 17:33:00,72.4,48.6,30.09,NNE,15,7.0,13.0,43,0.00,,,0.00,WUHU216DAVISVP2,2013-07-04 00:33:00,
2013-07-03 17:38:00,72.3,50.4,30.09,North,354,3.0,12.0,46,0.00,,,0.00,WUHU216DAVISVP2,2013-07-04 00:38:00,
2013-07-03 17:43:00,72.7,50.1,30.09,NE,34,0.0,10.0,45,0.00,,,0.00,WUHU216DAVISVP2,2013-07-04 00:43:00,
2013-07-03 17:48:00,72.8,50.8,30.09,NNE,27,2.0,9.0,46,0.00,,,0.00,WUHU216DAVISVP2,2013-07-04 00:48:00,
2013-07-03 17:53:00,72.2,51.5,30.09,NNE,17,0.0,8.0,48,0.00,,,0.00,WUHU216DAVISVP2,2013-07-04 00:53:00,
2013-07-03 17:58:00,72.0,51.3,30.09,NNE,15,4.0,8.0,48,0.00,,,0.00,WUHU216DAVISVP2,2013-07-04 00:58:00,
2013-07-03 18:03:00,71.6,51.4,30.08,North,10,4.0,10.0,49,0.00,,,0.00,WUHU216DAVISVP2,2013-07-04 01:03:00,
2013-07-03 18:08:00,72.0,51.8,30.08,North,10,2.0,10.0,49,0.00,,,0.00,WUHU216DAVISVP2,2013-07-04 01:08:00,
2013-07-03 18:13:00,72.2,52.0,30.08,North,10,0.0,9.0,49,0.00,,,0.00,WUHU216DAVISVP2,2013-07-04 01:13:00,
2013-07-03 18:18:00,72.2,51.4,30.08,NNE,15,1.0,9.0,48,0.00,,,0.00,WUHU216DAVISVP2,2013-07-04 01:18:00,
2013-07-03 18:23:00,71.7,51.5,30.08,North,354,2.0,9.0,49,0.00,,,0.00,WUHU216DAVISVP2,2013-07-04 01:23:00,
2013-07-03 18:29:00,71.8,52.2,30.08,North,352,3.0,9.0,50,0.00,,,0.00,WUHU216DAVISVP2,2013-07-04 01:29:00,
2013-07-03 18:34:00,71.8,52.2,30.08,North,354,2.0,8.0,50,0.00,,,0.00,WUHU216DAVISVP2,2013-07-04 01:34:00,
2013-07-03 18:39:00,71.4,51.9,30.08,NNW,340,1.0,8.0,50,0.00,,,0.00,WUHU216DAVISVP2,2013-07-04 01:39:00,
2013-07-03 18:44:00,71.5,51.9,30.08,NNE,30,2.0,7.0,50,0.00,,,0.00,WUHU216DAVISVP2,2013-07-04 01:44:00,
2013-07-03 18:49:00,71.6,52.5,30.08,NNW,343,2.0,7.0,51,0.00,,,0.00,WUHU216DAVISVP2,2013-07-04 01:49:00,
2013-07-03 18:55:00,71.5,52.5,30.08,NNE,12,3.0,7.0,51,0.00,,,0.00,WUHU216DAVISVP2,2013-07-04 01:55:00,
2013-07-03 19:00:00,71.6,52.0,30.08,North,6,0.0,7.0,50,0.00,,,0.00,WUHU216DAVISVP2,2013-07-04 02:00:00,
2013-07-03 19:05:00,71.4,51.8,30.08,North,354,3.0,6.0,50,0.00,,,0.00,WUHU216DAVISVP2,2013-07-04 02:05:00,
2013-07-03 19:10:00,71.4,51.9,30.08,NNW,342,3.0,6.0,50,0.00,,,0.00,WUHU216DAVISVP2,2013-07-04 02:10:00,
2013-07-03 19:15:00,71.4,51.9,30.08,North,8,0.0,6.0,50,0.00,,,0.00,WUHU216DAVISVP2,2013-07-04 02:15:00,
2013-07-03 19:20:00,71.3,51.8,30.08,NE,46,4.0,6.0,50,0.00,,,0.00,WUHU216DAVISVP2,2013-07-04 02:20:00,
2013-07-03 19:25:00,71.2,51.7,30.08,North,353,1.0,5.0,50,0.00,,,0.00,WUHU216DAVISVP2,2013-07-04 02:25:00,
2013-07-03 19:30:00,71.2,51.1,30.08,NE,53,0.0,5.0,49,0.00,,,0.00,WUHU216DAVISVP2,2013-07-04 02:30:00,
2013-07-03 19:35:00,71.2,51.1,30.08,North,6,2.0,5.0,49,0.00,,,0.00,WUHU216DAVISVP2,2013-07-04 02:35:00,
2013-07-03 19:40:00,70.9,50.8,30.08,NNE,15,2.0,5.0,49,0.00,,,0.00,WUHU216DAVISVP2,2013-07-04 02:40:00,
2013-07-03 19:46:00,70.7,51.2,30.08,NNW,343,3.0,5.0,50,0.00,,,0.00,WUHU216DAVISVP2,2013-07-04 02:46:00,
2013-07-03 19:51:00,70.5,49.9,30.08,NNE,13,2.0,6.0,48,0.00,,,0.00,WUHU216DAVISVP2,2013-07-04 02:51:00,
2013-07-03 19:56:00,70.5,50.4,30.08,NNW,332,2.0,6.0,49,0.00,,,0.00,WUHU216DAVISVP2,2013-07-04 02:56:00,
2013-07-03 20:01:00,70.5,49.9,30.08,NNW,345,0.0,6.0,48,0.00,,,0.00,WUHU216DAVISVP2,2013-07-04 03:01:00,
2013-07-03 20:06:00,70.7,49.5,30.08,North,354,3.0,6.0,47,0.00,,,0.00,WUHU216DAVISVP2,2013-07-04 03:06:00,
2013-07-03 20:11:00,70.7,48.3,30.08,ESE,122,0.0,6.0,45,0.00,,,0.00,WUHU216DAVISVP2,2013-07-04 03:11:00,
2013-07-03 20:16:00,70.5,44.9,30.08,NW,322,3.0,6.0,40,0.00,,,0.00,WUHU216DAVISVP2,2013-07-04 03:16:00,
2013-07-03 20:21:00,70.3,44.7,30.08,North,3,1.0,6.0,40,0.00,,,0.00,WUHU216DAVISVP2,2013-07-04 03:21:00,
2013-07-03 20:27:00,70.0,45.1,30.08,North,8,1.0,6.0,41,0.00,,,0.00,WUHU216DAVISVP2,2013-07-04 03:27:00,
2013-07-03 20:32:00,69.6,46.0,30.08,North,350,1.0,5.0,43,0.00,,,0.00,WUHU216DAVISVP2,2013-07-04 03:32:00,
2013-07-03 20:37:00,69.4,46.5,30.08,East,83,2.0,6.0,44,0.00,,,0.00,WUHU216DAVISVP2,2013-07-04 03:37:00,
2013-07-03 20:43:00,69.2,46.9,30.08,NNE,15,0.0,6.0,45,0.00,,,0.00,WUHU216DAVISVP2,2013-07-04 03:43:00,
2013-07-03 20:49:00,68.9,48.4,30.08,North,8,0.0,5.0,48,0.00,,,0.00,WUHU216DAVISVP2,2013-07-04 03:49:00,
2013-07-03 20:54:00,68.6,49.3,30.08,North,6,2.0,6.0,50,0.00,,,0.00,WUHU216DAVISVP2,2013-07-04 03:54:00,
2013-07-03 20:59:00,68.3,50.1,30.08,NNW,338,2.0,6.0,52,0.00,,,0.00,WUHU216DAVISVP2,2013-07-04 03:59:00,
2013-07-03 21:01:00,68.2,49.9,30.08,NE,39,1.0,6.0,52,0.00,,,0.00,WUHU216DAVISVP2,2013-07-04 04:01:00,
2013-07-03 21:06:00,68.0,50.3,30.08,NNE,17,0.0,6.0,53,0.00,,,0.00,WUHU216DAVISVP2,2013-07-04 04:06:00,
2013-07-03 21:11:00,67.7,50.6,30.08,NNE,15,0.0,6.0,54,0.00,,,0.00,WUHU216DAVISVP2,2013-07-04 04:11:00,
2013-07-03 21:16:00,67.4,51.6,30.08,ENE,63,1.0,4.0,57,0.00,,,0.00,WUHU216DAVISVP2,2013-07-04 04:16:00,
2013-07-03 21:21:00,67.0,51.7,30.09,NE,43,0.0,4.0,58,0.00,,,0.00,WUHU216DAVISVP2,2013-07-04 04:21:00,
2013-07-03 21:26:00,66.7,52.1,30.09,NNE,18,1.0,3.0,59,0.00,,,0.00,WUHU216DAVISVP2,2013-07-04 04:26:00,
2013-07-03 21:31:00,66.3,52.0,30.09,ENE,75,0.0,5.0,60,0.00,,,0.00,WUHU216DAVISVP2,2013-07-04 04:31:00,
2013-07-03 21:36:00,65.9,51.8,30.09,NNE,26,1.0,5.0,60,0.00,,,0.00,WUHU216DAVISVP2,2013-07-04 04:36:00,
2013-07-03 21:41:00,65.6,51.9,30.09,NNE,15,0.0,5.0,61,0.00,,,0.00,WUHU216DAVISVP2,2013-07-04 04:41:00,
2013-07-03 21:46:00,65.2,51.6,30.09,ENE,77,0.0,5.0,61,0.00,,,0.00,WUHU216DAVISVP2,2013-07-04 04:46:00,
2013-07-03 21:51:00,65.0,51.4,30.10,East,79,0.0,5.0,61,0.00,,,0.00,WUHU216DAVISVP2,2013-07-04 04:51:00,
2013-07-03 21:56:00,64.6,51.0,30.10,NE,46,1.0,5.0,61,0.00,,,0.00,WUHU216DAVISVP2,2013-07-04 04:56:00,
2013-07-03 22:01:00,64.2,51.1,30.10,ENE,76,0.0,5.0,62,0.00,,,0.00,WUHU216DAVISVP2,2013-07-04 05:01:00,
2013-07-03 22:06:00,64.0,51.3,30.10,NNE,26,2.0,5.0,63,0.00,,,0.00,WUHU216DAVISVP2,2013-07-04 05:06:00,
2013-07-03 22:11:00,63.7,51.0,30.10,NNW,327,0.0,5.0,63,0.00,,,0.00,WUHU216DAVISVP2,2013-07-04 05:11:00,
2013-07-03 22:16:00,63.4,51.0,30.10,ENE,60,1.0,4.0,64,0.00,,,0.00,WUHU216DAVISVP2,2013-07-04 05:16:00,
2013-07-03 22:21:00,63.1,51.1,30.10,NE,53,1.0,4.0,65,0.00,,,0.00,WUHU216DAVISVP2,2013-07-04 05:21:00,
2013-07-03 22:26:00,62.8,51.4,30.11,NNE,16,2.0,3.0,66,0.00,,,0.00,WUHU216DAVISVP2,2013-07-04 05:26:00,
2013-07-03 22:31:00,62.4,51.0,30.10,NNE,24,3.0,3.0,66,0.00,,,0.00,WUHU216DAVISVP2,2013-07-04 05:31:00,
2013-07-03 22:36:00,62.1,50.8,30.11,NNE,16,0.0,4.0,66,0.00,,,0.00,WUHU216DAVISVP2,2013-07-04 05:36:00,
2013-07-03 22:41:00,61.8,50.9,30.11,North,4,1.0,4.0,67,0.00,,,0.00,WUHU216DAVISVP2,2013-07-04 05:41:00,
2013-07-03 22:46:00,61.7,50.8,30.11,NNW,345,1.0,3.0,67,0.00,,,0.00,WUHU216DAVISVP2,2013-07-04 05:46:00,
2013-07-03 22:51:00,61.5,50.6,30.11,NNE,32,0.0,3.0,67,0.00,,,0.00,WUHU216DAVISVP2,2013-07-04 05:51:00,
2013-07-03 22:56:00,61.2,50.7,30.11,ESE,117,0.0,2.0,68,0.00,,,0.00,WUHU216DAVISVP2,2013-07-04 05:56:00,
2013-07-03 23:01:00,61.0,50.5,30.11,SSE,157,0.0,3.0,68,0.00,,,0.00,WUHU216DAVISVP2,2013-07-04 06:01:00,
2013-07-03 23:06:00,60.7,50.6,30.11,North,354,1.0,3.0,69,0.00,,,0.00,WUHU216DAVISVP2,2013-07-04 06:06:00,
2013-07-03 23:11:00,60.6,50.5,30.11,NNW,328,2.0,3.0,69,0.00,,,0.00,WUHU216DAVISVP2,2013-07-04 06:11:00,
2013-07-03 23:16:00,60.5,50.7,30.11,WNW,288,0.0,5.0,70,0.00,,,0.00,WUHU216DAVISVP2,2013-07-04 06:16:00,
2013-07-03 23:21:00,60.3,51.0,30.11,NNE,23,1.0,5.0,71,0.00,,,0.00,WUHU216DAVISVP2,2013-07-04 06:21:00,
2013-07-03 23:26:00,60.3,51.0,30.11,ENE,69,0.0,5.0,71,0.00,,,0.00,WUHU216DAVISVP2,2013-07-04 06:26:00,
2013-07-03 23:31:00,60.1,51.2,30.11,NNE,22,0.0,5.0,72,0.00,,,0.00,WUHU216DAVISVP2,2013-07-04 06:31:00,
2013-07-03 23:36:00,59.9,51.0,30.11,North,8,1.0,4.0,72,0.00,,,0.00,WUHU216DAVISVP2,2013-07-04 06:36:00,
2013-07-03 23:41:00,59.7,51.0,30.12,North,359,1.0,3.0,73,0.00,,,0.00,WUHU216DAVISVP2,2013-07-04 06:41:00,
2013-07-03 23:46:00,59.6,51.1,30.11,NNW,333,0.0,3.0,73,0.00,,,0.00,WUHU216DAVISVP2,2013-07-04 06:46:00,
2013-07-03 23:51:00,59.5,51.3,30.11,NNW,328,0.0,3.0,74,0.00,,,0.00,WUHU216DAVISVP2,2013-07-04 06:51:00,
2013-07-03 23:56:00,59.3,51.1,30.11,WSW,255,1.0,3.0,74,0.00,,,0.00,WUHU216DAVISVP2,2013-07-04 06:56:00,